Ludington, MI

7:15 AM EDT on August 25, 2016 (GMT -0400)
Mason County

Weather History for KLDM - October, 2012

Change the Weather History Date:

Monday, October 22, 2012

  Actual Average Record
Temperature  
Mean Temperature 52 °F -  
Max Temperature 64 °F 56 °F 77 °F (1953)
Min Temperature 40 °F 37 °F 23 °F (2008)
Degree Days  
Heating Degree Days 13    
Growing Degree Days 2 (Base 50)    
Moisture  
Dew Point 48 °F    
Average Humidity 82    
Maximum Humidity 90    
Minimum Humidity 66    
Precipitation  
Precipitation 0.00 in - - ()
Sea Level Pressure  
Sea Level Pressure 29.98 in    
Wind  
Wind Speed 2 mph (ESE)    
Max Wind Speed 7 mph    
Max Gust Speed -    
Visibility 8 miles    
Events Rain    
Averages and records for this station are not official NWS values.
T = Trace of Precipitation, MM = Missing Value Source: NWS Daily Summary

Daily Weather History Graph

Daily Weather History Graph

Search for Another Location

Airport or City:

Trip Planner

Search our weather history database for the weather conditions in past years. The results will help you decide how hot, cold, wet, or windy it might be!

Date:

Astronomy

Oct. 22, 2012 Rise Set
Actual Time 8:09 AM EDT 6:49 PM EDT
Civil Twilight 7:40 AM EDT 7:19 PM EDT
Nautical Twilight 7:06 AM EDT 7:52 PM EDT
Astronomical Twilight 6:33 AM EDT 8:26 PM EDT
Moon 3:10 PM EDT (10/22) 12:41 AM EDT (10/22)
Length of Visible Light 11h 38m
Length of Day
10h 40m
First Quarter, 56% of the Moon is Illuminated
Oct 22
First Quarter
Oct 29
Full
Nov 6
Last Quarter
Nov 13
New
Nov 20
First Quarter

Hourly Weather History & Observations

Time (EDT) Temp. Windchill Dew Point Humidity Pressure Visibility Wind Dir Wind Speed Gust Speed Precip Events Conditions
12:15 AM 45.0 °F 43.5 °F 38.1 °F 77% 30.02 in 10.0 mi ESE 3.5 mph - N/A   Clear
12:35 AM 45.5 °F 43.2 °F 38.7 °F 77% 30.01 in 10.0 mi ESE 4.6 mph - N/A   Clear
12:55 AM 46.9 °F - 39.6 °F 76% 30.01 in 10.0 mi Calm Calm - N/A   Clear
1:15 AM 43.2 °F - 37.8 °F 81% 30.01 in 10.0 mi Calm Calm - N/A   Clear
1:55 AM 41.9 °F - 37.9 °F 86% 30.01 in 10.0 mi Calm Calm - N/A   Clear
2:15 AM 40.5 °F - 37.0 °F 88% 30.02 in 10.0 mi Calm Calm - N/A   Clear
2:35 AM 41.2 °F 39.2 °F 37.8 °F 88% 30.01 in 10.0 mi East 3.5 mph - N/A   Clear
2:55 AM 43.0 °F - 39.2 °F 86% 30.02 in 10.0 mi Calm Calm - N/A   Clear
3:15 AM 45.5 °F 44.2 °F 40.6 °F 83% 30.01 in 10.0 mi SE 3.5 mph - N/A   Clear
3:35 AM 45.5 °F - 40.5 °F 83% 30.01 in 10.0 mi Calm Calm - N/A   Clear
3:55 AM 47.5 °F - 41.7 °F 80% 30.00 in 10.0 mi Calm Calm - N/A   Clear
4:15 AM 45.1 °F 43.7 °F 41.0 °F 85% 30.00 in 10.0 mi ESE 3.5 mph - N/A   Scattered Clouds
4:55 AM 45.5 °F 44.2 °F 41.0 °F 84% 30.00 in 10.0 mi East 3.5 mph - N/A   Scattered Clouds
5:15 AM 48.2 °F - 43.0 °F 82% 29.99 in 10.0 mi ESE 4.6 mph - N/A   Mostly Cloudy
5:35 AM 48.2 °F - 42.8 °F 82% 29.99 in 10.0 mi ESE 3.5 mph - N/A   Mostly Cloudy
5:55 AM 48.2 °F - 42.8 °F 82% 30.00 in 10.0 mi East 4.6 mph - N/A   Mostly Cloudy
6:15 AM 48.2 °F - 43.2 °F 83% 29.99 in 10.0 mi East 3.5 mph - N/A   Mostly Cloudy
6:35 AM 48.2 °F - 43.7 °F 84% 29.99 in 10.0 mi Calm Calm - N/A   Mostly Cloudy
6:55 AM 48.2 °F - 43.7 °F 84% 29.99 in 10.0 mi Calm Calm - N/A   Scattered Clouds
7:15 AM 48.0 °F - 43.5 °F 84% 30.00 in 10.0 mi East 3.5 mph - N/A   Scattered Clouds
7:35 AM 47.8 °F - 43.7 °F 86% 30.00 in 10.0 mi SE 4.6 mph - N/A   Scattered Clouds
7:55 AM 48.2 °F - 43.3 °F 83% 30.00 in 10.0 mi SE 3.5 mph - N/A   Mostly Cloudy
8:15 AM 48.2 °F - 42.8 °F 82% 29.99 in 10.0 mi SSE 3.5 mph - N/A   Mostly Cloudy
8:35 AM 48.2 °F - 42.8 °F 82% 30.00 in 10.0 mi Calm Calm - N/A   Scattered Clouds
8:55 AM 48.2 °F - 43.7 °F 84% 30.00 in 10.0 mi East 3.5 mph - N/A   Scattered Clouds
9:15 AM 48.4 °F - 43.5 °F 83% 30.00 in 10.0 mi Calm Calm - N/A   Scattered Clouds
9:35 AM 51.4 °F - 45.7 °F 81% 30.00 in 10.0 mi SE 3.5 mph - N/A   Mostly Cloudy
9:55 AM 53.1 °F - 46.8 °F 79% 30.01 in 10.0 mi Calm Calm - N/A   Overcast
10:15 AM 53.1 °F - 46.0 °F 77% 30.01 in 10.0 mi Calm Calm - N/A   Mostly Cloudy
10:35 AM 53.8 °F - 46.4 °F 76% 30.01 in 10.0 mi SSE 3.5 mph - N/A   Mostly Cloudy
10:55 AM 55.6 °F - 48.0 °F 76% 30.02 in 10.0 mi Calm Calm - N/A   Overcast
11:15 AM 55.6 °F - 47.8 °F 75% 30.00 in 10.0 mi ESE 5.8 mph - N/A   Overcast
11:35 AM 55.6 °F - 47.1 °F 73% 30.00 in 10.0 mi SE 3.5 mph - N/A   Scattered Clouds
11:55 AM 58.1 °F - 48.7 °F 71% 30.00 in 10.0 mi SE 3.5 mph - N/A   Scattered Clouds
12:15 PM 58.1 °F - 48.4 °F 70% 30.00 in 10.0 mi Calm Calm - N/A   Overcast
12:35 PM 58.1 °F - 48.2 °F 70% 30.00 in 10.0 mi Calm Calm - N/A   Overcast
12:55 PM 58.6 °F - 49.3 °F 71% 30.01 in 10.0 mi Calm Calm - N/A   Overcast
1:16 PM 60.8 °F - 50.5 °F 69% 30.00 in 10.0 mi Calm Calm - N/A   Overcast
1:35 PM 60.8 °F - 50.2 °F 68% 29.99 in 10.0 mi South 3.5 mph - N/A   Overcast
1:55 PM 62.4 °F - 51.1 °F 66% 29.99 in 10.0 mi SSW 3.5 mph - N/A   Overcast
2:15 PM 61.7 °F - 50.7 °F 67% 29.97 in 10.0 mi Calm Calm - N/A   Mostly Cloudy
2:35 PM 62.6 °F - 51.3 °F 66% 29.96 in 10.0 mi Calm Calm - N/A   Overcast
2:55 PM 64.8 °F - 53.2 °F 66% 29.95 in 10.0 mi SE 4.6 mph - N/A   Overcast
3:15 PM 64.2 °F - 53.1 °F 67% 29.95 in 10.0 mi ESE 3.5 mph - N/A   Overcast
3:35 PM 63.1 °F - 53.1 °F 70% 29.94 in 10.0 mi East 4.6 mph - N/A   Overcast
4:15 PM 60.8 °F - 55.0 °F 81% 29.93 in 10.0 mi Calm Calm - N/A   Overcast
4:35 PM 60.8 °F - 55.4 °F 82% 29.93 in 10.0 mi Calm Calm - N/A   Light Drizzle
4:55 PM 59.9 °F - 55.4 °F 85% 29.93 in 10.0 mi SE 3.5 mph - N/A   Overcast
5:15 PM 59.4 °F - 55.4 °F 87% 29.92 in 7.0 mi Calm Calm - N/A   Overcast
5:35 PM 59.4 °F - 55.6 °F 87% 29.94 in 5.0 mi WSW 5.8 mph - N/A Rain Light Rain
5:55 PM 59.4 °F - 55.0 °F 86% 29.96 in 7.0 mi WNW 5.8 mph - N/A   Overcast
6:15 PM 58.1 °F - 54.0 °F 86% 29.96 in 7.0 mi WNW 5.8 mph - N/A Rain Rain
6:35 PM 56.3 °F - 52.7 °F 88% 29.96 in 7.0 mi North 5.8 mph - N/A   Overcast
6:55 PM 55.9 °F - 52.7 °F 89% 29.95 in 5.0 mi North 6.9 mph - N/A   Overcast
7:15 PM 55.6 °F - 52.7 °F 90% 29.95 in 5.0 mi Calm Calm - N/A   Overcast
7:35 PM 55.6 °F - 52.7 °F 90% 29.95 in 5.0 mi Calm Calm - N/A   Overcast
7:55 PM 55.6 °F - 52.7 °F 90% 29.94 in 4.0 mi Calm Calm - N/A   Overcast
8:15 PM 55.6 °F - 52.7 °F 90% 29.95 in 5.0 mi East 4.6 mph - N/A   Overcast
8:35 PM 55.6 °F - 52.7 °F 90% 29.94 in 7.0 mi ESE 4.6 mph - N/A   Overcast
8:55 PM 55.6 °F - 52.7 °F 90% 29.94 in 5.0 mi ESE 3.5 mph - N/A   Overcast
9:15 PM 55.6 °F - 52.7 °F 90% 29.94 in 4.0 mi North 3.5 mph - N/A   Overcast
9:35 PM 55.6 °F - 52.7 °F 90% 29.94 in 3.0 mi NNE 3.5 mph - N/A   Overcast
9:55 PM 55.6 °F - 52.7 °F 90% 29.94 in 4.0 mi North 4.6 mph - N/A   Overcast
10:15 PM 55.6 °F - 52.7 °F 90% 29.93 in 4.0 mi NNE 3.5 mph - N/A   Overcast
10:35 PM 55.6 °F - 52.7 °F 90% 29.92 in 4.0 mi NE 3.5 mph - N/A   Overcast
10:55 PM 55.6 °F - 52.7 °F 90% 29.92 in 5.0 mi Calm Calm - N/A   Overcast
11:15 PM 55.6 °F - 52.7 °F 90% 29.93 in 4.0 mi Calm Calm - N/A   Overcast
11:35 PM 55.6 °F - 52.7 °F 90% 29.93 in 4.0 mi Calm Calm - N/A   Overcast
11:55 PM 55.6 °F - 52.7 °F 90% 29.93 in 4.0 mi Calm Calm - N/A   Overcast